Printer-friendly version

IAU Minor Planet Center

Minor Planet Center

MPEC 2006-X23 : 2005 JB

The following Minor Planet Electronic Circular may be linked-to from your own Web pages, but must not otherwise be redistributed electronically.


Read MPEC 2006-X22 Read MPEC 2006-X24


M.P.E.C. 2006-X23                                Issued 2006 Dec. 8, 16:37 UT

     The Minor Planet Electronic Circulars contain information on unusual
         minor planets and routine data on comets.  They are published
   on behalf of Commission 20 of the International Astronomical Union by the
          Minor Planet Center, Smithsonian Astrophysical Observatory,
                          Cambridge, MA 02138, U.S.A.

             Prepared using the Tamkin Foundation Computer Network

                              MPC@CFA.HARVARD.EDU
          URL http://cfa-www.harvard.edu/iau/mpc.html  ISSN 1523-6714

                                    2005 JB

                           Revision to MPEC 2005-J14

Additional Observations:
     K05J00B 2C2006 10 25.41923803 00 15.638+13 01 38.99         22.3 R EX023568
     K05J00B 2C2006 10 25.42312503 00 15.372+13 01 35.86         22.3 R EX023568
     K05J00B 2C2006 10 25.42685003 00 15.121+13 01 32.94         22.3 R EX023568
     K05J00B 2C2006 10 25.43059703 00 14.858+13 01 29.83         22.3 R EX023568
     K05J00B 2C2006 11 28.33721202 23 28.923+05 44 45.77         22.8 R EX023568

Observer details:
568 Mauna Kea.  Observer F. Bernardi.  Measurers F. Bernardi, D. J. Tholen.
    2.24-m University of Hawaii reflector + 2048 CCD.

First and last observations above in comparison with prediction:
Residuals in seconds of arc, reference and Delta-T
061025 568 26.4+  8.5-    061128 568 24.0+ 10.2-    MPO 90213   -0.00002 day

Orbital elements:
2005 JB                                                  Earth MOID = 0.0880 AU
Epoch 2006 Sept. 22.0 TT = JDT 2454000.5                MPC
M 176.30692              (2000.0)            P               Q
n   0.34743972     Peri.    0.97169     -0.77987928     +0.50674508
a   2.0039324      Node   217.96742     -0.57823300     -0.80801824
e   0.4529171      Incl.   36.67137     -0.23965580     +0.30052612
P   2.84           H   18.9           G   0.15           U   1
Residuals in seconds of arc
050503 703  0.5-  0.3+    050505 I77  0.0   0.1-    050510 649  0.4-  0.5-
050503 703  0.4-  0.6+    050505 I77  0.3-  0.4-    050510 649  0.3-  0.5-
050503 703  0.3-  0.0     050505 I77  0.2-  0.3-    050510 H45  0.5+  0.1+
050503 703  0.3-  0.1+    050506 932  0.0   0.1+    050510 H45  0.1+  0.2-
050503 703  0.4-  0.0     050506 932  0.1+  0.2-    050510 H45  0.1+  0.4+
050503 703  0.4-  0.1+    050506 932  0.0   0.1+    050510 H45  1.0+  0.2-
050503 703  0.2-  0.1+    050506 932  0.2+  0.0     050510 H45  0.4+  0.8+
050503 703  0.2-  0.1+    050506 130  0.5+  1.6+    050510 H45  0.4+  0.3-
050503 355  0.3+  0.3+    050506 130  0.6+  1.7+    050511 H45  0.1-  0.2+
050503 355  0.9+  0.5+    050506 130  0.5+  1.4+    050511 H45  0.3-  0.2+
050503 355  0.1-  0.1-    050506 130  0.3+  1.4+    050511 H45  0.4+  0.4-
050503 355  0.8-  0.0     050506 130  0.4+  1.4+    050511 H45  1.4+  0.4+
050503 355  1.2+  0.1+    050506 203  0.4-  0.2-    050511 H45  0.6+  0.2+
050503 213  0.3-  0.3-    050506 203  0.4-  0.3-    050511 A48  0.2+  0.1-
050503 213  0.2-  0.5-    050506 J81  1.4+  0.5-    050511 A48  0.1+  0.1+
050503 213  0.3-  0.3-    050506 J81  0.9+  0.8+    050511 A48  0.1-  0.1+
050503 213  0.2-  0.4-    050506 J81  0.9+  0.3+    050511 A48  0.1+  0.5-
050503 I77  0.1-  0.0     050506 J81  0.6+  0.5-    050511 560  0.4+  0.1-
050503 213  0.0   0.0     050506 108  0.5-  0.4+    050511 560  0.1+  0.3-
050503 213  0.2-  0.1-    050506 J81  0.4+  1.2+    050511 560  0.2+  0.4-
050503 213  0.3-  0.6-    050506 J81  0.7-  0.4+    050512 A48  0.2+  0.1-
050503 213  0.3-  0.2-    050506 108  0.1-  0.4+    050512 A48  0.4+  0.2-
050503 213  0.1-  0.4-    050506 J81  0.8+  0.3-    050512 A48  0.2+  0.0
050503 213  0.1-  0.3-    050506 J81  0.4+  0.6-    050512 A48  0.5+  0.1+
050503 213  0.1-  0.0     050506 J81  0.6-  0.6-    050515 H45  0.9+  0.6-
050503 I77  0.2-  0.1-    050506 A06 (1.4-  4.0-)   050515 H45  0.4+  0.8-
050503 213  0.5-  0.1-    050506 A06 (1.8-  4.4-)   050515 H45  1.3+  0.7-
050503 213  0.3-  0.3-    050506 J81  0.7-  0.1-    050515 H45  1.3+  1.1-
050503 213  0.4-  0.3-    050506 A06 (1.5-  3.5-)   050517 938  0.0   0.4-
050503 213  0.3-  0.2-    050506 203  0.5-  0.3-    050517 938  0.5+  0.2-
050503 I77  0.2-  0.4-    050506 203  0.4-  0.4-    050519 084  0.1-  0.5-
050503 213  0.2-  0.1-    050507 H45  0.7-  0.2-    050524 118  0.1-  0.7+
050503 213  0.1-  0.3-    050507 H45  0.4+  0.1+    050524 118  0.6-  0.1+
050503 213  0.1+  0.2+    050507 H45  0.2-  0.1+    050524 118  0.7+  0.5+
050503 213  0.2-  0.4-    050507 H45  0.4+  0.3+    050524 118  0.3-  0.3-
050503 213  0.5-  0.5-    050507 H45  0.3+  0.4+    050525 118  0.2-  0.0
050503 J95  0.0   0.2-    050507 H45  0.7+  0.3-    050525 118  0.6-  0.2-
050503 J95  0.1-  0.2-    050507 H45  0.4-  0.2+    050525 118  0.1-  0.3+
050503 J95  0.2-  0.1-    050507 379  0.4+  0.2-    050525 118  0.3+  0.0
050503 J95  0.2-  0.3-    050507 379  0.2-  0.6-    050525 560  0.0   0.4+
050503 844  0.1+  0.7+    050507 379  0.2-  0.8-    050525 560  0.2+  0.4+
050503 844  0.5+  0.7+    050507 379  0.1-  0.9-    050525 560  0.1-  1.1+
050503 844  0.4+  0.8+    050507 355  0.3-  0.0     050526 560  0.0   0.3-
050503 844  0.2+  0.5+    050507 355  0.3-  0.1+    050526 560  0.1-  0.2+
050503 844  0.4+  0.8+    050507 355  0.1+  0.0     050526 560  0.5-  0.2+
050503 844  0.2+  0.5+    050507 J81  0.2-  0.6+    050527 461  0.1-  0.1+
050503 844  0.6+  0.9+    050507 J81  0.0   0.1-    050527 461  0.1-  0.1-
050503 844  0.0   0.8+    050507 J81  0.1+  0.0     050527 461  0.4-  0.0
050503 844  0.2+  0.8+    050508 J81  0.0   0.3-    050527 461  0.1-  0.1+
050503 844  0.3+  1.0+    050508 J81  0.4-  0.7+    050527 461  0.4-  0.1+
050503 844  0.3+  0.6+    050508 704  1.3+  0.0     050527 461  0.5-  0.0
050503 844  0.1+  0.6+    050508 704  0.9+  0.5-    050527 461  0.6-  0.1+
050503 844  0.1+  0.7+    050508 704  0.8+  0.4-    050527 461  0.2-  0.1-
050503 844  0.3+  0.9+    050508 704  0.6+  0.5-    050530 012  0.5-  0.3-
050503 844  0.0   0.9+    050508 704  0.6+  0.3+    050530 012  0.1+  0.3-
050504 932  0.0   0.1-    050508 203  0.8+  1.4+    050530 012  0.3-  0.0
050504 932  0.0   0.4-    050508 203  0.1+  0.2-    050530 012  0.3-  0.4-
050504 932  0.1+  0.1-    050508 560  0.4+  0.1+    050530 012  0.3-  0.1-
050504 H36  0.3-  0.2-    050508 560  0.4+  0.2+    050530 012  0.1-  0.0
050504 H36  0.4-  0.7-    050508 560  0.7+  0.3-    050613 682  0.2+  0.2-
050504 H36  0.2+  0.2-    050508 951  0.3+  0.1-    050613 682  0.1-  0.7+
050504 H36  0.4-  0.3+    050508 951  0.1+  0.3-    050613 682  0.0   0.8+
050504 H36  0.2-  0.1+    050508 951  0.1-  0.2+    050715 754  0.4+  0.6-
050504 673  0.0   1.0+    050508 951  0.2-  0.9+    050716 754  0.4-  0.3+
050504 673  0.2+  0.1+    050509 185  0.2-  0.8-    050716 754  0.2-  0.1+
050504 673  0.2+  0.5+    050509 185  0.3-  0.1-    050716 J95  0.2-  0.8+
050504 673  0.6+  0.9+    050509 185  0.6-  0.4-    050716 J95  0.2+  0.2+
050504 703  0.1+  0.3+    050509 185  0.5-  0.1+    050716 J95  0.7+  0.5-
050504 703  0.3-  0.4-    050509 185  0.3+  1.0-    050811 J95  0.1+  0.5-
050504 703  0.4-  0.4-    050509 127  0.9-  0.9-    050811 J95  0.6-  0.7+
050504 703  0.2-  0.1-    050509 084  0.2-  0.4-    050812 J95  0.1+  0.1+
050504 379  0.6-  0.0     050509 084  0.2-  0.8-    050813 204  1.1-  0.5-
050504 355  0.3-  0.2+    050509 084  0.3-  0.6-    050830 F65  0.5-  0.7+
050504 355  0.7-  0.4-    050509 084  0.2-  0.7-    050830 F65  0.0   0.4+
050504 355  0.3+  0.6+    050509 127  1.1-  1.0-    050830 F65  0.4-  0.5+
050504 355  0.6+  0.1+    050510 452  0.1-  0.7-    061025 568  0.1+  0.0
050504 379  0.1-  0.4+    050510 452  0.1+  0.8-    061025 568  0.0   0.0
050504 379  0.9-  0.1-    050510 452  0.3-  0.7-    061025 568  0.0   0.1+
050504 379  1.0-  0.1-    050510 452  0.4-  0.8-    061025 568  0.1-  0.0
050504 379  0.1-  0.4-    050510 649  0.3-  0.4-    061128 568  0.1+  0.1+
050505 I77  0.3-  0.3-    050510 649  0.3-  0.4-

Ephemeris:
2005 JB                  a,e,i = 2.00, 0.45, 37                  q = 1.0963
Date    TT    R. A. (2000) Decl.     Delta      r     Elong.  Phase     V
2006 12 01    02 21.22   +05 17.2    2.017    2.884   145.4    11.2    23.4
2006 12 06    02 17.43   +04 29.6    2.060    2.879   139.2    12.9    23.5
2006 12 11    02 14.26   +03 47.9    2.108    2.873   133.2    14.5    23.6
2006 12 16    02 11.74   +03 12.0    2.161    2.868   127.4    15.8    23.7
2006 12 21    02 09.87   +02 42.1    2.218    2.862   121.8    17.0    23.8
2006 12 26    02 08.68   +02 17.9    2.279    2.855   116.4    18.0    23.9
2006 12 31    02 08.13   +01 59.0    2.342    2.848   111.1    18.8    24.0
2007 01 05    02 08.20   +01 45.1    2.407    2.841   106.1    19.4    24.1
2007 01 10    02 08.87   +01 35.7    2.474    2.833   101.1    19.9    24.1
2007 01 15    02 10.10   +01 30.6    2.541    2.825    96.4    20.2    24.2
2007 01 20    02 11.87   +01 29.1    2.608    2.817    91.8    20.4    24.2
2007 01 25    02 14.14   +01 31.0    2.675    2.808    87.4    20.5    24.3
2007 01 30    02 16.87   +01 35.8    2.741    2.798    83.0    20.5    24.3

Timothy B. Spahr             (C) Copyright 2006 MPC           M.P.E.C. 2006-X23

Read MPEC 2006-X22 Read MPEC 2006-X24


Our Web policy. Index to the CBAT/MPC/ICQ pages.


Valid HTML 4.01!